Temp
83 84 85 86 86 86 79 79 75 79 87 87 87 86 86 84 85 81 77 76 81 82
84 84 85 86 85 85 79 78 75 77 80 86 86 83 83 84 83 82 80 80 83 82
83 83 85 84 76 82 77 76 76 77 83 86 87 86 84 83 84 82 80 85 80 81
85 86 85 82 79 84 84 75 79 84 84 85 85 86 84 82 81 81 81 81 81 82
86 86 86 85 87 86 84 85 86 84 86 84 84 83 83 82 82 81 80 80 79 81
86 86 86 83 86 84 82 83 87 84 82 82 82 82 83 83 83 82 82 81 79 81
86 87 88 86 87 88 87 86 85 85 85 84 83 83 84 84 82 82 83 82 80 81
85 86 86 84 84 85 85 85 84 83 85 85 84 86 82 82 83 82 82 81 81 81
82 84 84 84 84 83 83 83 83 81 82 82 86 69 72 76 82 82 82 79 81 81
82 82 82 81 82 81 81 81 80 80 82 81 81 68 70 74 79 81 80 80 79 81
81 80 82 79 77 78 78 79 77 79 79 78 77 65 67 68 73 74 76 77 76 73
78 73 76 75 77 77 77 76 76 77 76 76 74 62 62 65 72 73 73 69 63 67
77 75 73 74 75 76 76 72 70 61 60 60 61 56 57 62 69 69 70 68 63 59
76 72 71 70 70 69 66 64 60 59 58 57 57 56 55 57 64 64 65 63 60 57
MSLP
1016.10 1016.27 1016.31 1016.13 1016.10 1016.27 1016.73 1017.31 1017.50 1017.84 1016.83 1016.84 1017.02 1016.92 1016.74 1016.89 1016.74 1016.90 1017.36 1017.87 1017.69 1017.42
1015.60 1015.74 1015.70 1015.80 1016.07 1016.57 1016.73 1017.30 1016.46 1017.13 1017.48 1016.47 1016.59 1016.44 1016.50 1016.60 1016.78 1017.07 1017.66 1017.74 1017.32 1017.27
1015.31 1015.49 1015.51 1015.93 1016.65 1016.72 1016.73 1016.54 1016.88 1017.38 1016.84 1016.14 1016.15 1016.17 1016.57 1016.73 1016.80 1017.16 1017.15 1016.99 1017.02 1016.89
1014.80 1015.08 1015.40 1015.74 1016.76 1016.27 1016.50 1016.68 1016.61 1016.77 1016.88 1016.50 1016.28 1016.26 1016.62 1016.89 1016.98 1017.15 1017.38 1017.19 1016.91 1016.92
1014.32 1014.66 1014.96 1015.27 1015.50 1015.96 1016.01 1016.37 1016.47 1016.90 1016.75 1016.77 1016.71 1016.73 1016.89 1017.15 1017.15 1017.31 1017.39 1017.32 1017.28 1017.11
1013.79 1014.16 1014.39 1014.90 1015.16 1015.63 1016.07 1016.37 1016.24 1016.33 1016.71 1016.90 1016.86 1016.99 1016.96 1017.10 1017.20 1017.24 1017.29 1017.41 1017.47 1017.24
1013.22 1013.67 1013.92 1014.27 1014.69 1015.09 1015.46 1015.82 1015.98 1016.13 1016.21 1016.40 1016.75 1016.92 1016.84 1016.85 1016.97 1017.04 1017.12 1017.26 1017.34 1017.21
1012.70 1013.18 1013.53 1013.91 1014.33 1014.65 1014.95 1015.22 1015.47 1015.62 1015.67 1015.93 1016.26 1016.37 1016.49 1016.67 1016.69 1016.75 1016.90 1017.11 1017.21 1017.08
1012.29 1012.81 1013.38 1013.73 1014.23 1014.45 1014.51 1014.74 1015.10 1015.39 1015.48 1015.61 1015.86 1016.27 1016.38 1016.35 1016.35 1016.42 1016.63 1016.90 1016.96 1016.92
1012.81 1013.10 1013.49 1013.70 1014.29 1014.69 1014.89 1015.04 1015.09 1015.23 1015.41 1015.47 1015.87 1016.39 1016.63 1016.69 1016.54 1016.35 1016.45 1016.69 1016.81 1016.88
1012.86 1013.38 1013.75 1014.24 1014.49 1014.83 1015.04 1015.19 1015.36 1015.43 1015.61 1015.95 1016.21 1016.56 1016.59 1016.78 1016.83 1016.87 1016.72 1016.88 1017.14 1017.44
1013.24 1013.78 1014.12 1014.36 1014.95 1015.17 1015.42 1015.51 1015.52 1015.75 1015.81 1016.26 1016.53 1017.17 1017.37 1017.27 1017.13 1017.04 1017.00 1017.40 1017.87 1018.00
1013.64 1014.38 1014.99 1014.81 1015.01 1015.42 1015.62 1016.01 1016.26 1017.04 1017.29 1017.34 1017.65 1017.83 1017.85 1017.77 1017.69 1017.59 1017.67 1018.08 1018.42 1018.76
1014.27 1015.04 1015.05 1015.32 1015.47 1016.18 1016.61 1016.99 1017.51 1017.99 1018.14 1018.31 1018.50 1018.35 1018.07 1018.17 1018.21 1018.20 1017.75 1018.45 1019.09 1019.41
Wind_Speed
7 6 5 5 3 1 2 4 9 8 4 4 3 4 3 3 3 5 5 8 5 3
6 7 6 2 4 4 3 2 5 9 10 3 2 4 3 3 4 3 4 6 5 4
10 9 7 2 7 6 6 5 5 12 9 4 3 3 3 4 4 3 4 6 5 5
10 10 8 6 11 8 4 11 11 4 5 5 4 2 2 4 7 5 5 7 7 4
10 10 11 9 6 5 4 5 5 5 2 4 4 5 4 5 6 5 6 7 6 7
10 11 9 9 8 7 8 7 5 3 4 4 4 6 5 4 5 6 5 6 8 6
10 10 8 6 4 3 4 3 4 5 4 5 4 5 6 5 5 6 5 3 6 7
11 8 8 7 8 7 6 6 7 6 5 5 6 7 5 6 6 6 4 4 5 7
9 10 6 5 6 7 7 7 6 6 6 6 7 5 1 0 2 2 3 4 5 6
1 6 6 5 4 5 4 4 6 7 8 8 7 5 4 3 4 4 4 3 4 5
3 4 4 5 5 6 6 6 7 6 6 7 3 5 3 1 3 5 6 5 7 7
3 4 4 5 5 5 5 5 4 5 5 7 1 6 6 4 3 3 5 8 8 7
6 7 0 2 3 2 5 7 8 10 9 11 8 11 8 7 2 2 3 5 6 15
7 5 5 6 7 5 7 8 7 8 7 9 8 8 8 8 3 3 3 3 3 4
Wind_Direction
215 223 212 213 279 127 3 40 46 325 207 196 259 284 258 268 258 69 76 322 282 310
214 246 243 236 236 131 107 197 19 308 287 205 234 278 320 299 321 335 208 239 254 246
196 228 247 275 14 298 89 51 200 212 268 295 253 296 335 306 309 347 325 307 38 360
198 212 219 219 184 226 150 181 240 221 254 290 294 240 283 300 303 315 298 294 303 277
190 207 207 218 226 185 199 240 244 246 224 285 304 293 221 250 297 298 269 270 297 284
193 199 224 192 208 199 196 223 247 229 203 241 265 288 276 250 257 278 270 271 288 267
185 193 205 211 220 218 203 225 262 262 229 206 233 268 261 245 231 249 274 297 292 282
177 192 197 188 191 198 206 206 206 223 245 199 224 240 253 251 242 256 252 273 283 288
168 183 188 201 202 204 195 188 208 239 243 220 232 107 0 235 262 294 291 286 277 278
8 196 203 203 201 227 244 273 247 231 239 239 236 168 203 299 298 280 257 288 291 291
243 242 214 231 238 249 253 250 265 279 276 275 339 159 126 34 323 312 302 322 11 0
210 279 285 249 273 280 280 290 279 274 279 279 61 56 32 324 344 354 350 67 40 15
77 81 246 178 162 347 21 34 41 58 41 22 79 35 17 354 344 330 61 74 80 48
92 93 90 64 57 66 67 74 73 74 62 52 32 27 42 14 33 334 59 70 64 45